EW7948 Weather Reports


time (UTC)temp
C
wind
direction
speed
KPH
gust
KPH
rain 1hr
cm
rain 24hr
cm
rain mn
cm
humidity
%
barometer
mb
20260506033043 15 46 8.0 14.5 0.00 0.00 0.00 48 1000.2
20260506031542 15 46 6.4 12.9 0.00 0.00 0.00 48 999.9
20260506030043 15 32 6.4 9.7 0.00 0.00 0.00 48 999.7
20260506024540 15 15 6.4 14.5 0.00 0.00 0.00 47 999.6
20260506023053 15 360 9.7 16.1 0.00 0.00 0.00 46 999.2
20260506021545 15 360 14.5 22.5 0.00 0.00 0.00 45 999.0
20260506020040 16 12 11.3 22.5 0.00 0.00 0.00 44 998.8
20260506014540 16 9 12.9 22.5 0.00 0.00 0.00 45 998.8
20260506013137 16 340 12.9 24.1 0.00 0.00 0.00 46 998.6
20260506011509 16 344 17.7 30.6 0.00 0.00 0.00 46 998.3
20260506010042 16 29 17.7 33.8 0.00 0.00 0.00 45 998.1
20260506004506 16 44 24.1 33.8 0.00 0.00 0.00 44 998.5
20260506003025 16 5 24.1 35.4 0.00 0.00 0.00 41 998.6
20260506001546 17 5 20.9 33.8 0.00 0.00 0.00 41 998.3
20260506000041 17 350 17.7 41.8 0.00 0.00 0.00 41 998.1
20260505234601 17 16 29.0 45.1 0.00 0.00 0.00 39 997.5
20260505233042 19 17 33.8 59.5 0.00 0.00 0.00 33 996.9
20260505231539 22 30 30.6 43.5 0.00 0.00 0.00 24 996.4
20260505230038 23 322 8.0 16.1 0.00 0.00 0.00 12 996.2
20260505224537 24 253 4.8 16.1 0.00 0.00 0.00 11 996.2
20260505223037 25 240 6.4 16.1 0.00 0.00 0.00 10 996.4
20260505221531 25 146 3.2 14.5 0.00 0.00 0.00 11 996.5
20260505220030 24 341 9.7 16.1 0.00 0.00 0.00 12 996.8
20260505214556 25 255 9.7 20.9 0.00 0.00 0.00 13 997.0
20260505213026 25 200 4.8 22.5 0.00 0.00 0.00 11 997.1
20260505211524 24 215 9.7 19.3 0.00 0.00 0.00 12 997.4
20260505210020 23 221 6.4 22.5 0.00 0.00 0.00 12 997.6
20260505204520 23 302 4.8 27.4 0.00 0.00 0.00 13 997.9
20260505203031 23 159 11.3 24.1 0.00 0.00 0.00 13 998.0
20260505201523 23 136 12.9 33.8 0.00 0.00 0.00 11 998.1
20260505200013 23 221 12.9 25.7 0.00 0.00 0.00 15 998.4
20260505194513 22 148 8.0 19.3 0.00 0.00 0.00 19 998.3
20260505193010 22 255 4.8 19.3 0.00 0.00 0.00 20 998.5
20260505191509 22 210 9.7 16.1 0.00 0.00 0.00 19 998.7
20260505190008 22 309 6.4 16.1 0.00 0.00 0.00 23 998.8
20260505184506 22 227 4.8 24.1 0.00 0.00 0.00 21 998.9
20260505183013 22 171 9.7 27.4 0.00 0.00 0.00 24 999.1
20260505181504 22 171 11.3 17.7 0.00 0.00 0.00 22 999.3
20260505180001 21 230 9.7 19.3 0.00 0.00 0.00 21 999.5
20260505174605 21 176 8.0 19.3 0.00 0.00 0.00 22 999.7
20260505173055 20 209 9.7 27.4 0.00 0.00 0.00 24 999.9
20260505171553 20 242 12.9 27.4 0.00 0.00 0.00 23 999.8
20260505170050 19 236 6.4 17.7 0.00 0.00 0.00 25 999.8
20260505164551 19 189 11.3 19.3 0.00 0.00 0.00 26 999.8
20260505163052 19 238 12.9 25.7 0.00 0.00 0.00 28 999.8
20260505161548 19 219 6.4 12.9 0.00 0.00 0.00 29 999.9
20260505153040 17 202 11.3 17.7 0.00 0.00 0.00 29 1000.1
20260505151535 15 84 4.8 6.4 0.00 0.00 0.00 38 1000.2
20260505124520 11 50 0.0 0.0 0.00 0.00 0.00 64 999.9
20260505123016 11 50 0.0 4.8 0.00 0.00 0.00 63 999.7
20260505121515 11 49 0.0 3.2 0.00 0.00 0.00 61 999.6
20260505120016 12 50 0.0 0.0 0.00 0.00 0.00 60 999.5
20260505114510 12 49 0.0 3.2 0.00 0.00 0.00 58 999.5
20260505113008 12 49 0.0 4.8 0.00 0.00 0.00 60 999.5
20260505111508 12 50 3.2 6.4 0.00 0.00 0.00 61 999.6
20260505101600 13 325 0.0 3.2 0.00 0.00 0.00 57 999.3
20260505100101 13 325 0.0 0.0 0.00 0.00 0.00 57 999.2
20260505094557 13 325 0.0 0.0 0.00 0.00 0.00 57 999.1
20260505093058 13 325 0.0 0.0 0.00 0.00 0.00 58 999.1
20260505091614 13 325 0.0 0.0 0.00 0.00 0.00 59 999.2
20260505090053 13 325 0.0 0.0 0.00 0.00 0.00 59 999.0
20260505084552 13 325 0.0 0.0 0.00 0.00 0.00 59 998.8
20260505083050 13 325 0.0 4.8 0.00 0.00 0.00 55 998.7
20260505081557 14 323 0.0 0.0 0.00 0.00 0.00 56 998.7
20260505080053 15 323 0.0 3.2 0.00 0.00 0.00 56 998.8
20260505074543 15 323 0.0 3.2 0.00 0.00 0.00 55 999.0
20260505073045 15 323 0.0 3.2 0.00 0.00 0.00 55 998.9
20260505071552 15 323 0.0 1.6 0.00 0.00 0.00 55 998.9
20260505070042 15 323 1.6 6.4 0.00 0.00 0.00 54 998.7
20260505064536 15 323 1.6 8.0 0.00 0.00 0.00 53 998.7
20260505063039 16 325 1.6 4.8 0.00 0.00 0.00 56 998.7
20260505061556 16 325 1.6 4.8 0.00 0.00 0.00 54 998.7
20260505060032 16 326 4.8 12.9 0.00 0.00 0.00 53 998.6
20260505054529 16 295 6.4 17.7 0.00 0.00 0.00 51 998.5
20260505053035 17 289 6.4 16.1 0.00 0.00 0.00 50 998.5
20260505051551 17 327 6.4 9.7 0.00 0.00 0.00 44 998.4
20260505041528 17 36 8.0 16.1 0.00 0.00 0.00 46 998.5
20260505040026 17 38 9.7 22.5 0.00 0.00 0.00 47 998.3
20260505034523 17 360 14.5 20.9 0.00 0.00 0.00 45 998.2